SCP
0 0 0 0 0 0 0 0 0 0 0 0 0 0 0 0 0 -0 0 0 0 0 0 0 0 0 0 -0 -0 -0 0 0 -0 -0 0 -0 -0 -0 -0 -0 -0 -0 0 -0 -0
0 0 0 0 0 0 0 0 0 0 0 0 0 0 0 0 0 0 0 0 0 0 0 0 -0 -0 -0 0 0 -0 0 -0 -0 -0 -0 -0 -0 0 0 0 0 -0 0 0 0
0 0 0 0 0 0 0 0 0 0 0 0 0 0 0 0 0 0 0 0 0 0 0 0 0 0 0 0 0 0 -0 -0 -0 -0 -0 -0 -0 -0 0 0 -0 -0 0 0 -0
-0 -0 0 0 0 0 0 0 0 0 0 0 0 0 0 0 0 0 0 0 0 0 0 0 0 0 0 0 0 -0 -0 0 -0 -0 -0 -0 -0 -0 -0 0 0 -0 0 -0 -0
-0 -0 -0 -0 0 0 0 0 0 0 0 0 0 0 0 0 0 0 0 0 0 0 0 0 0 0 0 -0 -0 -0 -0 -0 -0 -0 -0 -0 -0 -0 -0 0 0 -0 0 0 -0
-0 -0 -0 -0 -0 0 0 0 0 0 0 0 0 0 0 0 0 0 -0 0 0 0 0 0 0 0 0 0 0 0 -0 0 -0 -0 -0 -0 -0 -0 -0 0 -0 0 0 0 -0
-0 -0 -0 -0 -0 -0 -0 0 0 0 0 0 0 0 0 0 0 -0 0 0 0 0 0 0 0 0 0 0 0 0 0 -0 -0 -0 -0 -0 -0 -0 0 -0 -0 0 0 0 -0
-0 -0 -0 -0 -0 -0 -0 -0 0 0 0 0 0 0 0 0 0 -0 -0 0 0 0 0 0 0 0 0 -0 0 0 0 0 -0 -0 -0 -0 -0 -0 0 -0 -0 0 0 0 0
-0 -0 -0 -0 -0 -0 0 0 -0 0 0 0 0 0 0 0 0 0 0 0 0 0 0 0 0 0 0 0 0 0 0 -0 -0 0 -0 0 -0 -0 0 -0 0 0 0 -0 -0
-0 -0 -0 -0 -0 -0 0 -0 -0 -0 -0 -0 0 0 0 0 0 -0 0 0 0 0 0 0 0 0 0 0 0 -0 0 0 0 0 0 0 -0 -0 0 0 0 -0 -0 -0 -0
-0 -0 -0 -0 -0 -0 0 0 0 0 0 0 0 0 0 -0 -0 -0 -0 0 0 0 0 0 0 0 0 0 -0 -0 -0 0 0 0 0 0 -0 -0 0 0 -0 -0 -0 0 -0
-0 -0 -0 -0 -0 -0 0 0 0 0 0 0 0 0 0 0 0 0 0 0 0 0 0 0 0 0 0 0 0 0 -0 0 0 0 0 0 0 0 -0 0 0 -0 0 0 -0
0 0 0 -0 0 0 0 0 0 -0 0 -0 0 0 0 0 0 0 0 0 0 0 0 0 0 0 0 0 0 0 0 0 0 0 0 0 0 0 0 0 0 0 0 0 0
0 0 -0 -0 -0 -0 0 0 0 0 0 0 0 0 0 0 0 -0 0 0 0 0 0 0 0 0 0 0 0 0 0 0 0 0 0 0 0 0 -0 -0 0 0 0 0 0
0 0 0 0 -0 0 0 0 0 -0 0 -0 -0 -0 0 0 -0 0 0 0 0 0 0 0 0 0 0 0 0 0 0 0 0 -0 0 0 0 -0 -0 0 -0 0 0 0 0
0 -0 -0 0 0 -0 -0 -0 0 0 0 -0 0 -0 0 0 0 0 0 0 0 0 0 0 0 0 0 0 0 0 0 0 0 0 0 0 0 0 0 0 0 -0 0 0 0
0 -0 0 0 0 -0 -0 0 0 0 -0 0 -0 0 0 0 -0 0 0 0 0 0 0 0 0 0 0 0 0 0 0 0 0 0 0 0 0 0 0 0 0 0 0 -0 -0
-0 0 0 0 -0 -0 0 0 0 0 0 0 0 -0 0 -0 0 0 0 0 0 0 0 0 0 0 0 0 0 0 0 0 0 0 0 0 0 0 -0 0 0 1 0 0 0
-0 -0 -0 0 -0 -0 0 -0 0 0 0 0 0 0 0 0 0 0 0 0 0 0 0 0 0 0 0 0 0 0 0 0 -0 0 0 0 0 0 0 0 0 0 0 -0 0
-0 -0 -0 -0 0 0 0 -0 -0 -0 -0 0 0 0 0 0 0 0 0 0 0 0 0 0 0 0 0 0 0 0 0 0 0 0 0 0 0 0 0 0 0 0 0 -0 0
-0 0 0 0 0 -0 -0 -0 -0 -0 0 0 0 0 0 0 -0 0 0 0 0 0 0 0 0 0 0 0 0 0 0 0 0 0 0 0 0 0 0 0 0 0 0 0 0
-0 0 0 0 0 -0 -0 -0 -0 0 0 -0 0 0 0 0 0 0 0 0 0 0 0 0 0 0 0 0 0 0 0 0 0 0 0 0 0 0 0 0 0 0 0 0 0
0 0 0 0 -0 0 -0 -0 -0 0 0 -0 0 0 0 0 -0 -0 0 0 0 0 0 0 0 0 0 0 0 0 0 0 0 0 0 0 0 0 0 0 0 0 0 0 0
-0 -0 0 0 -0 0 -0 0 -0 0 0 0 -0 -0 0 0 -0 0 0 -0 0 0 0 0 0 0 0 0 0 0 0 0 0 0 0 0 0 0 0 0 0 0 0 0 0
-0 -0 0 -0 0 -0 -0 0 -0 -0 -0 0 0 0 0 0 0 0 0 0 -0 0 0 0 0 0 0 0 0 0 0 0 0 -0 -0 0 0 0 0 0 0 0 0 0 0
0 -0 -0 0 0 0 0 -0 -0 -0 -0 -0 -0 -0 0 0 -0 0 0 0 0 -0 0 0 0 0 0 0 0 0 0 0 0 0 -0 0 0 0 0 0 0 0 0 0 0
0 -0 -0 -0 -0 -0 0 0 -0 -0 0 -0 -0 -0 -0 -0 0 0 0 0 0 0 0 0 0 0 0 0 0 0 0 0 0 0 0 0 0 0 0 0 0 0 0 0 0
Wind_Speed_500mb
27 27 28 28 28 29 29 29 27 25 21 19 21 19 19 22 22 29 36 12 27 12 30 15 22 35 35 47 46 25 5 4 18 18 16 33 14 31 22 14 49 30 60 70 68
31 29 29 29 28 27 28 28 26 25 24 20 19 20 18 22 24 38 26 26 28 25 29 30 32 32 42 38 26 5 5 5 19 28 32 28 17 23 12 13 20 66 57 72 82
31 32 33 34 31 28 26 28 26 23 21 21 19 18 17 18 19 12 13 33 28 30 30 32 32 37 45 44 13 13 8 12 34 57 49 30 19 9 20 5 67 72 69 63 85
33 33 33 34 33 31 27 26 25 22 19 17 19 16 14 11 2 7 7 16 20 27 34 35 43 46 27 25 33 7 41 17 47 54 48 33 37 21 29 23 52 76 70 70 79
32 33 32 31 32 32 28 26 23 20 17 15 16 14 11 9 25 12 12 12 22 30 43 35 41 43 28 23 48 31 18 16 45 52 47 45 31 25 39 37 46 72 57 59 71
36 33 32 30 29 30 27 23 20 17 13 13 14 11 10 11 13 10 14 11 28 39 45 35 30 38 37 39 14 5 4 26 42 48 53 39 37 25 52 53 44 66 55 55 54
38 34 30 29 29 27 23 17 14 12 11 11 11 13 18 35 10 6 14 19 26 41 40 29 35 40 35 29 26 9 14 13 38 50 37 51 26 27 55 41 63 61 57 51 49
38 32 29 27 24 21 16 10 7 6 8 10 10 11 19 10 13 19 5 12 29 32 34 22 30 42 44 35 5 14 12 9 28 38 37 17 18 29 46 48 58 58 57 53 51
35 31 25 23 21 17 12 8 4 3 7 8 7 8 20 11 25 23 21 25 25 28 28 33 32 30 31 12 13 15 12 30 27 24 35 9 21 30 37 52 49 58 56 50 63
35 25 23 22 16 16 15 14 8 10 8 9 10 12 28 33 27 31 26 31 34 29 34 40 14 2 12 8 15 13 16 4 16 4 20 6 23 21 28 48 52 57 59 50 67
34 22 18 19 18 14 16 9 4 3 15 22 21 23 9 14 24 35 33 40 36 37 14 28 8 15 22 24 32 24 22 15 13 15 11 18 35 28 30 38 49 54 55 54 66
29 18 15 16 16 17 22 17 21 22 18 36 39 44 47 21 28 29 32 25 27 16 21 7 16 24 29 37 39 36 26 21 11 7 16 33 30 24 29 30 50 47 50 59 65
24 18 14 18 22 21 23 18 15 27 16 39 46 41 39 38 32 32 40 38 18 17 16 17 23 37 37 33 35 31 18 29 20 19 21 11 11 17 27 30 23 26 35 57 59
23 20 14 18 23 20 38 23 23 25 6 12 25 25 17 31 16 38 40 34 13 22 20 20 44 32 34 27 25 16 19 22 42 19 9 11 4 11 26 23 23 33 29 45 56
26 21 18 20 29 29 22 19 21 14 7 25 28 18 30 22 17 36 41 42 22 19 14 21 27 29 29 30 25 23 20 30 45 35 17 24 13 7 6 28 24 38 42 48 52
32 33 29 26 31 19 27 26 19 5 5 8 15 13 22 33 36 36 40 41 40 21 22 27 43 30 18 27 24 19 14 13 6 9 2 18 16 11 15 22 17 43 48 44 54
32 34 36 34 25 14 20 25 5 7 34 25 10 4 15 17 25 19 22 19 15 9 13 22 33 23 24 13 13 13 3 5 2 5 12 21 21 7 27 28 33 11 29 50 59
34 31 31 24 9 15 21 10 8 6 13 14 15 39 20 20 21 27 19 16 27 26 12 13 14 26 8 7 14 15 12 10 14 11 13 12 13 10 15 28 34 17 34 33 34
34 28 29 11 6 8 13 9 8 3 12 14 35 13 9 8 13 25 17 19 26 22 10 6 20 15 16 14 19 16 16 19 8 14 6 11 9 14 9 14 23 24 29 10 18
37 26 35 14 22 10 16 1 8 19 16 21 18 14 14 20 16 36 21 21 6 18 12 2 9 24 22 10 1 3 7 10 3 7 7 8 6 15 21 25 25 22 40 27 21
25 10 10 11 24 28 5 7 15 17 6 12 10 8 14 14 13 8 14 39 26 16 27 13 8 16 15 8 7 4 8 3 2 2 9 11 1 15 19 20 25 35 40 48 38
10 6 12 3 18 11 15 11 17 21 15 8 11 16 9 21 15 6 10 16 42 24 9 6 8 11 14 8 13 12 12 9 8 10 5 10 2 2 28 32 42 36 45 52 37
19 20 9 12 10 8 9 12 19 6 15 5 7 6 9 4 12 14 15 24 23 14 6 11 9 9 12 3 9 10 15 14 6 3 10 7 8 11 40 33 36 38 42 46 44
12 7 4 2 10 5 4 11 13 3 8 7 14 7 13 4 4 8 13 19 10 12 11 10 5 8 6 7 7 9 11 15 4 8 10 5 26 29 31 30 44 36 41 44 52
7 5 12 8 15 13 15 14 18 7 11 5 4 2 11 11 12 5 10 7 14 4 6 8 6 12 18 15 17 18 18 19 3 22 13 14 20 30 31 33 48 48 46 47 46
18 14 29 7 16 9 8 9 21 17 17 18 14 17 15 11 9 5 7 12 1 9 3 5 3 18 15 12 12 17 12 12 12 26 20 20 31 28 44 55 53 43 45 47 47
36 40 19 18 10 14 11 13 16 6 11 20 19 17 25 15 15 24 36 34 19 9 11 6 7 6 11 21 15 11 16 14 10 16 27 24 23 35 34 40 49 43 46 49 49
Wind_Direction_500mb
332 329 326 320 314 309 303 304 305 298 290 293 297 296 292 290 285 267 246 218 210 190 193 207 199 193 210 237 228 202 253 267 170 137 138 156 129 118 150 149 135 137 147 144 145
330 327 326 325 320 311 306 297 297 297 292 289 293 297 292 294 288 270 263 224 203 205 211 187 200 204 235 232 227 58 279 13 89 127 142 141 135 158 147 125 118 136 148 142 144
328 325 323 321 320 314 307 299 294 293 288 285 290 294 295 298 308 287 285 213 200 209 204 186 208 211 230 235 143 11 256 129 112 120 129 127 117 137 109 66 151 146 158 151 146
326 322 320 318 315 313 309 300 291 292 285 277 283 288 290 282 121 324 6 175 186 202 200 207 233 235 244 242 121 37 262 246 134 135 137 142 136 113 123 138 148 148 163 149 156
325 320 317 315 313 312 310 303 292 287 281 268 270 278 278 264 257 282 350 208 198 198 198 212 245 226 232 242 142 180 221 91 144 140 137 137 130 114 118 138 147 156 166 161 156
335 329 321 317 313 311 309 305 293 284 270 255 258 253 252 252 217 250 292 229 207 193 192 211 237 229 254 259 152 107 228 170 140 136 136 135 130 117 150 153 162 163 169 174 165
337 333 328 325 320 314 312 306 291 277 251 232 240 248 239 225 123 319 266 213 202 195 191 209 233 256 259 279 154 71 354 5 168 138 136 130 151 146 164 158 158 168 175 175 167
345 342 339 337 335 331 325 321 296 253 224 213 209 236 256 234 211 226 200 202 175 202 194 212 252 259 276 275 30 196 65 321 143 135 149 139 144 152 167 173 164 173 177 177 159
354 352 358 360 357 354 2 10 55 132 173 189 159 229 264 195 191 196 209 189 173 198 219 245 244 265 288 288 299 188 185 213 156 165 156 117 142 156 177 183 170 175 178 182 150
356 3 9 12 18 33 51 41 66 107 139 168 171 281 234 211 216 192 200 179 179 201 235 245 219 330 290 278 232 233 206 278 102 172 47 311 141 157 196 175 174 173 181 179 156
354 358 7 19 21 4 345 331 312 208 197 211 202 233 299 180 177 190 188 187 180 203 208 230 109 220 243 250 250 258 217 167 151 107 91 236 147 166 200 178 176 183 181 167 158
354 343 341 341 341 331 328 312 350 320 290 278 261 263 269 215 181 183 189 185 186 196 204 157 218 233 227 243 249 255 267 75 37 133 51 200 139 159 194 199 181 187 180 167 162
348 340 326 319 320 311 305 292 334 320 292 288 247 246 264 180 180 195 182 203 198 204 198 221 230 223 242 238 247 246 255 181 159 137 117 133 72 185 197 191 190 191 180 171 169
336 334 322 312 310 310 290 291 328 319 304 263 177 244 221 171 207 196 192 210 191 203 213 221 250 230 234 246 237 244 252 191 133 141 182 174 48 311 212 199 210 211 206 179 184
324 325 334 322 304 311 348 356 318 293 276 145 176 202 209 208 207 187 181 220 235 191 194 246 241 248 223 242 232 243 143 151 162 186 113 198 122 225 222 193 198 207 220 201 199
319 310 306 313 303 306 321 335 295 271 309 219 128 167 206 206 244 180 175 220 244 259 224 235 249 244 230 237 235 259 188 168 94 83 101 194 153 201 183 185 192 208 205 215 208
314 306 300 295 296 348 341 308 280 32 337 340 15 168 221 197 225 208 172 209 229 227 253 230 248 253 250 234 280 285 187 272 238 159 225 210 186 239 176 161 174 184 288 220 221
312 297 286 275 306 350 333 326 34 212 274 289 291 298 226 212 229 182 169 201 239 250 254 212 250 248 209 224 229 252 199 179 206 191 215 114 144 249 186 155 146 158 243 264 217
312 306 279 235 216 32 303 63 212 248 277 303 318 316 196 129 17 349 213 210 225 239 195 280 224 236 172 195 225 286 231 230 293 274 150 110 51 41 108 97 105 135 174 268 245
323 306 266 226 266 138 60 241 221 209 247 282 297 32 15 28 36 17 359 224 26 20 341 308 323 299 188 162 334 110 317 3 353 283 72 91 150 155 170 141 106 92 96 69 84
337 315 97 140 148 62 107 249 245 238 56 304 303 96 38 45 79 65 342 304 9 351 342 68 349 293 135 164 133 317 300 293 85 253 140 148 98 347 122 108 99 90 88 78 80
328 291 238 222 88 129 226 206 233 147 84 284 27 33 39 74 48 140 187 273 329 324 23 352 266 281 236 275 182 245 251 224 142 300 87 112 79 346 90 97 90 83 89 89 96
325 264 104 169 125 227 235 230 39 347 180 261 146 147 70 127 126 151 235 284 298 28 45 352 313 345 301 156 274 236 262 271 291 64 177 93 150 148 92 95 99 92 100 96 99
318 298 89 54 61 31 47 132 131 42 352 2 325 147 116 145 208 213 246 199 288 29 336 144 329 150 216 262 321 219 253 271 242 61 71 13 132 146 130 127 113 103 104 98 93
265 356 359 22 5 65 9 7 80 84 15 323 196 325 66 46 5 273 348 195 218 149 306 105 340 336 250 261 343 342 215 249 231 136 133 180 136 148 140 132 120 117 112 107 102
324 3 354 128 240 123 94 32 56 31 7 23 12 10 113 119 147 301 354 1 299 159 197 349 260 324 325 337 347 342 305 213 8 108 120 93 103 125 122 118 112 114 114 106 102
3 350 353 278 294 82 51 45 77 11 72 35 356 23 57 51 350 316 314 309 12 26 347 81 99 247 285 321 330 351 352 46 18 89 129 141 152 143 140 132 127 128 108 100 102
Wind_Speed_850mb
27 27 28 28 28 29 29 29 27 25 21 19 21 19 19 22 22 29 36 12 27 12 30 15 22 35 35 47 46 25 5 4 18 18 16 33 14 31 22 14 49 30 60 70 68
31 29 29 29 28 27 28 28 26 25 24 20 19 20 18 22 24 38 26 26 28 25 29 30 32 32 42 38 26 5 5 5 19 28 32 28 17 23 12 13 20 66 57 72 82
31 32 33 34 31 28 26 28 26 23 21 21 19 18 17 18 19 12 13 33 28 30 30 32 32 37 45 44 13 13 8 12 34 57 49 30 19 9 20 5 67 72 69 63 85
33 33 33 34 33 31 27 26 25 22 19 17 19 16 14 11 2 7 7 16 20 27 34 35 43 46 27 25 33 7 41 17 47 54 48 33 37 21 29 23 52 76 70 70 79
32 33 32 31 32 32 28 26 23 20 17 15 16 14 11 9 25 12 12 12 22 30 43 35 41 43 28 23 48 31 18 16 45 52 47 45 31 25 39 37 46 72 57 59 71
36 33 32 30 29 30 27 23 20 17 13 13 14 11 10 11 13 10 14 11 28 39 45 35 30 38 37 39 14 5 4 26 42 48 53 39 37 25 52 53 44 66 55 55 54
38 34 30 29 29 27 23 17 14 12 11 11 11 13 18 35 10 6 14 19 26 41 40 29 35 40 35 29 26 9 14 13 38 50 37 51 26 27 55 41 63 61 57 51 49
38 32 29 27 24 21 16 10 7 6 8 10 10 11 19 10 13 19 5 12 29 32 34 22 30 42 44 35 5 14 12 9 28 38 37 17 18 29 46 48 58 58 57 53 51
35 31 25 23 21 17 12 8 4 3 7 8 7 8 20 11 25 23 21 25 25 28 28 33 32 30 31 12 13 15 12 30 27 24 35 9 21 30 37 52 49 58 56 50 63
35 25 23 22 16 16 15 14 8 10 8 9 10 12 28 33 27 31 26 31 34 29 34 40 14 2 12 8 15 13 16 4 16 4 20 6 23 21 28 48 52 57 59 50 67
34 22 18 19 18 14 16 9 4 3 15 22 21 23 9 14 24 35 33 40 36 37 14 28 8 15 22 24 32 24 22 15 13 15 11 18 35 28 30 38 49 54 55 54 66
29 18 15 16 16 17 22 17 21 22 18 36 39 44 47 21 28 29 32 25 27 16 21 7 16 24 29 37 39 36 26 21 11 7 16 33 30 24 29 30 50 47 50 59 65
24 18 14 18 22 21 23 18 15 27 16 39 46 41 39 38 32 32 40 38 18 17 16 17 23 37 37 33 35 31 18 29 20 19 21 11 11 17 27 30 23 26 35 57 59
23 20 14 18 23 20 38 23 23 25 6 12 25 25 17 31 16 38 40 34 13 22 20 20 44 32 34 27 25 16 19 22 42 19 9 11 4 11 26 23 23 33 29 45 56
26 21 18 20 29 29 22 19 21 14 7 25 28 18 30 22 17 36 41 42 22 19 14 21 27 29 29 30 25 23 20 30 45 35 17 24 13 7 6 28 24 38 42 48 52
32 33 29 26 31 19 27 26 19 5 5 8 15 13 22 33 36 36 40 41 40 21 22 27 43 30 18 27 24 19 14 13 6 9 2 18 16 11 15 22 17 43 48 44 54
32 34 36 34 25 14 20 25 5 7 34 25 10 4 15 17 25 19 22 19 15 9 13 22 33 23 24 13 13 13 3 5 2 5 12 21 21 7 27 28 33 11 29 50 59
34 31 31 24 9 15 21 10 8 6 13 14 15 39 20 20 21 27 19 16 27 26 12 13 14 26 8 7 14 15 12 10 14 11 13 12 13 10 15 28 34 17 34 33 34
34 28 29 11 6 8 13 9 8 3 12 14 35 13 9 8 13 25 17 19 26 22 10 6 20 15 16 14 19 16 16 19 8 14 6 11 9 14 9 14 23 24 29 10 18
37 26 35 14 22 10 16 1 8 19 16 21 18 14 14 20 16 36 21 21 6 18 12 2 9 24 22 10 1 3 7 10 3 7 7 8 6 15 21 25 25 22 40 27 21
25 10 10 11 24 28 5 7 15 17 6 12 10 8 14 14 13 8 14 39 26 16 27 13 8 16 15 8 7 4 8 3 2 2 9 11 1 15 19 20 25 35 40 48 38
10 6 12 3 18 11 15 11 17 21 15 8 11 16 9 21 15 6 10 16 42 24 9 6 8 11 14 8 13 12 12 9 8 10 5 10 2 2 28 32 42 36 45 52 37
19 20 9 12 10 8 9 12 19 6 15 5 7 6 9 4 12 14 15 24 23 14 6 11 9 9 12 3 9 10 15 14 6 3 10 7 8 11 40 33 36 38 42 46 44
12 7 4 2 10 5 4 11 13 3 8 7 14 7 13 4 4 8 13 19 10 12 11 10 5 8 6 7 7 9 11 15 4 8 10 5 26 29 31 30 44 36 41 44 52
7 5 12 8 15 13 15 14 18 7 11 5 4 2 11 11 12 5 10 7 14 4 6 8 6 12 18 15 17 18 18 19 3 22 13 14 20 30 31 33 48 48 46 47 46
18 14 29 7 16 9 8 9 21 17 17 18 14 17 15 11 9 5 7 12 1 9 3 5 3 18 15 12 12 17 12 12 12 26 20 20 31 28 44 55 53 43 45 47 47
36 40 19 18 10 14 11 13 16 6 11 20 19 17 25 15 15 24 36 34 19 9 11 6 7 6 11 21 15 11 16 14 10 16 27 24 23 35 34 40 49 43 46 49 49
Wind_Direction_850mb
332 329 326 320 314 309 303 304 305 298 290 293 297 296 292 290 285 267 246 218 210 190 193 207 199 193 210 237 228 202 253 267 170 137 138 156 129 118 150 149 135 137 147 144 145
330 327 326 325 320 311 306 297 297 297 292 289 293 297 292 294 288 270 263 224 203 205 211 187 200 204 235 232 227 58 279 13 89 127 142 141 135 158 147 125 118 136 148 142 144
328 325 323 321 320 314 307 299 294 293 288 285 290 294 295 298 308 287 285 213 200 209 204 186 208 211 230 235 143 11 256 129 112 120 129 127 117 137 109 66 151 146 158 151 146
326 322 320 318 315 313 309 300 291 292 285 277 283 288 290 282 121 324 6 175 186 202 200 207 233 235 244 242 121 37 262 246 134 135 137 142 136 113 123 138 148 148 163 149 156
325 320 317 315 313 312 310 303 292 287 281 268 270 278 278 264 257 282 350 208 198 198 198 212 245 226 232 242 142 180 221 91 144 140 137 137 130 114 118 138 147 156 166 161 156
335 329 321 317 313 311 309 305 293 284 270 255 258 253 252 252 217 250 292 229 207 193 192 211 237 229 254 259 152 107 228 170 140 136 136 135 130 117 150 153 162 163 169 174 165
337 333 328 325 320 314 312 306 291 277 251 232 240 248 239 225 123 319 266 213 202 195 191 209 233 256 259 279 154 71 354 5 168 138 136 130 151 146 164 158 158 168 175 175 167
345 342 339 337 335 331 325 321 296 253 224 213 209 236 256 234 211 226 200 202 175 202 194 212 252 259 276 275 30 196 65 321 143 135 149 139 144 152 167 173 164 173 177 177 159
354 352 358 360 357 354 2 10 55 132 173 189 159 229 264 195 191 196 209 189 173 198 219 245 244 265 288 288 299 188 185 213 156 165 156 117 142 156 177 183 170 175 178 182 150
356 3 9 12 18 33 51 41 66 107 139 168 171 281 234 211 216 192 200 179 179 201 235 245 219 330 290 278 232 233 206 278 102 172 47 311 141 157 196 175 174 173 181 179 156
354 358 7 19 21 4 345 331 312 208 197 211 202 233 299 180 177 190 188 187 180 203 208 230 109 220 243 250 250 258 217 167 151 107 91 236 147 166 200 178 176 183 181 167 158
354 343 341 341 341 331 328 312 350 320 290 278 261 263 269 215 181 183 189 185 186 196 204 157 218 233 227 243 249 255 267 75 37 133 51 200 139 159 194 199 181 187 180 167 162
348 340 326 319 320 311 305 292 334 320 292 288 247 246 264 180 180 195 182 203 198 204 198 221 230 223 242 238 247 246 255 181 159 137 117 133 72 185 197 191 190 191 180 171 169
336 334 322 312 310 310 290 291 328 319 304 263 177 244 221 171 207 196 192 210 191 203 213 221 250 230 234 246 237 244 252 191 133 141 182 174 48 311 212 199 210 211 206 179 184
324 325 334 322 304 311 348 356 318 293 276 145 176 202 209 208 207 187 181 220 235 191 194 246 241 248 223 242 232 243 143 151 162 186 113 198 122 225 222 193 198 207 220 201 199
319 310 306 313 303 306 321 335 295 271 309 219 128 167 206 206 244 180 175 220 244 259 224 235 249 244 230 237 235 259 188 168 94 83 101 194 153 201 183 185 192 208 205 215 208
314 306 300 295 296 348 341 308 280 32 337 340 15 168 221 197 225 208 172 209 229 227 253 230 248 253 250 234 280 285 187 272 238 159 225 210 186 239 176 161 174 184 288 220 221
312 297 286 275 306 350 333 326 34 212 274 289 291 298 226 212 229 182 169 201 239 250 254 212 250 248 209 224 229 252 199 179 206 191 215 114 144 249 186 155 146 158 243 264 217
312 306 279 235 216 32 303 63 212 248 277 303 318 316 196 129 17 349 213 210 225 239 195 280 224 236 172 195 225 286 231 230 293 274 150 110 51 41 108 97 105 135 174 268 245
323 306 266 226 266 138 60 241 221 209 247 282 297 32 15 28 36 17 359 224 26 20 341 308 323 299 188 162 334 110 317 3 353 283 72 91 150 155 170 141 106 92 96 69 84
337 315 97 140 148 62 107 249 245 238 56 304 303 96 38 45 79 65 342 304 9 351 342 68 349 293 135 164 133 317 300 293 85 253 140 148 98 347 122 108 99 90 88 78 80
328 291 238 222 88 129 226 206 233 147 84 284 27 33 39 74 48 140 187 273 329 324 23 352 266 281 236 275 182 245 251 224 142 300 87 112 79 346 90 97 90 83 89 89 96
325 264 104 169 125 227 235 230 39 347 180 261 146 147 70 127 126 151 235 284 298 28 45 352 313 345 301 156 274 236 262 271 291 64 177 93 150 148 92 95 99 92 100 96 99
318 298 89 54 61 31 47 132 131 42 352 2 325 147 116 145 208 213 246 199 288 29 336 144 329 150 216 262 321 219 253 271 242 61 71 13 132 146 130 127 113 103 104 98 93
265 356 359 22 5 65 9 7 80 84 15 323 196 325 66 46 5 273 348 195 218 149 306 105 340 336 250 261 343 342 215 249 231 136 133 180 136 148 140 132 120 117 112 107 102
324 3 354 128 240 123 94 32 56 31 7 23 12 10 113 119 147 301 354 1 299 159 197 349 260 324 325 337 347 342 305 213 8 108 120 93 103 125 122 118 112 114 114 106 102
3 350 353 278 294 82 51 45 77 11 72 35 356 23 57 51 350 316 314 309 12 26 347 81 99 247 285 321 330 351 352 46 18 89 129 141 152 143 140 132 127 128 108 100 102